{"data":{"norad_id":64925,"epoch":"2026-09-20T07:07:12.594720Z","epoch_age_seconds":141863,"freshness":"FRESH","line1":"1 64925U 25157X   26263.29667355  .00009583  00000+0  29453-3 0  9998","line2":"2 64925  53.1602 158.5699 0001518  95.4407 264.6769 15.34385982 65966","mean_motion":15.34385982,"eccentricity":0.0001518,"inclination_deg":53.1602,"raan_deg":158.5699,"arg_perigee_deg":95.4407,"mean_anomaly_deg":264.6769,"bstar":0.00029453,"rev_number":6596,"period_min":93.848615465258,"perigee_km":461.70645910129,"apogee_km":463.78335084764,"semimajor_km":6840.8819049745,"source":"CELESTRAK","updated_at":"2026-09-21T09:00:35.484056Z"}}